Date String (YYYY-MM-DD hh:mm:ss) UTC,Instrument flags,Ambient pressure (hPa),Sample flow (lpm),Bypass flow (lpm),Sample temperature (°C),Ambient temperature (°C),ASC tube jacket temperature (°C),LED temperature (°C),Box temperature (°C),Sample RH (%),Span deviation,Mass concentration (μg/m³),Mass concentration (μg/m³),Mass concentration (μg/m³)
DateTimeUTC,F1_M11,P_M11,Q1_M11,Q2_M11,T1_M11,T2_M11,T3_M11,T4_M11,T5_M11,U1_M11,ZSPAN_M11,X0_M11,X2_M11,X1_M11
2022-03-08 02:00:00,,0826.2,4.99,0.00,22.0,21.3,00.0,31.0,23.7,09.3,-000.3,0011.52,0006.87,0006.29
2022-03-08 02:01:00,,0826.2,5.00,0.00,22.0,21.3,00.0,31.0,23.7,09.2,0000.0,0011.57,0006.81,0006.24
2022-03-08 02:02:00,,0826.2,5.00,0.00,21.9,21.3,00.0,31.0,23.6,09.2,-000.1,0011.27,0006.78,0006.19
2022-03-08 02:03:00,,0826.3,4.99,0.00,21.9,21.2,00.0,31.0,23.6,09.1,-000.5,0011.28,0006.75,0006.15
2022-03-08 02:04:00,,0826.2,5.00,0.00,21.9,21.2,00.0,31.0,23.6,08.9,-001.0,0010.92,0006.73,0006.13
2022-03-08 02:05:00,,0826.2,5.02,0.00,21.9,21.1,00.0,31.0,23.6,08.8,-001.0,0010.66,0006.75,0006.15
2022-03-08 02:06:00,,0826.2,5.00,0.00,21.9,21.1,00.0,31.0,23.5,08.8,-000.6,0010.59,0006.75,0006.16
2022-03-08 02:07:00,,0826.2,5.00,0.00,21.8,21.1,00.0,31.0,23.5,08.8,-000.3,0010.56,0006.75,0006.18
2022-03-08 02:08:00,,0826.2,5.00,0.00,21.8,21.1,00.0,30.9,23.5,08.8,0000.0,0010.59,0006.77,0006.21
2022-03-08 02:09:00,,0826.3,4.99,0.00,21.8,21.1,00.0,30.9,23.5,08.8,-000.3,0010.99,0006.79,0006.24
2022-03-08 02:10:00,,0826.2,5.00,0.00,21.8,21.1,00.0,30.9,23.5,08.9,-000.5,0011.09,0006.81,0006.27
2022-03-08 02:11:00,,0826.2,5.00,0.00,21.8,21.3,00.0,30.9,23.5,08.9,-000.5,0010.77,0006.81,0006.29
2022-03-08 02:12:00,,0826.3,5.01,0.00,21.9,22.0,00.0,31.0,23.8,08.9,-000.3,0010.48,0006.80,0006.30
2022-03-08 02:13:00,,0826.2,5.00,0.00,22.1,22.7,00.0,31.0,24.0,08.8,-000.3,0010.42,0006.80,0006.32
2022-03-08 02:14:00,,0826.2,5.00,0.00,22.2,23.0,00.0,31.0,24.2,08.8,0000.1,0010.90,0006.81,0006.33
2022-03-08 02:15:00,,0826.3,5.00,0.00,22.2,22.8,00.0,31.1,24.2,08.9,0000.3,0010.93,0006.82,0006.32
2022-03-08 02:16:00,,0826.2,5.01,0.00,22.3,22.5,00.0,31.1,24.1,08.9,0000.2,0010.88,0006.81,0006.31
2022-03-08 02:17:00,,0826.2,4.98,0.00,22.2,22.3,00.0,31.1,24.0,08.9,-000.2,0011.17,0006.77,0006.30
2022-03-08 02:18:00,,0826.2,5.00,0.00,22.2,22.1,00.0,31.1,24.0,08.8,-000.6,0011.11,0006.75,0006.29
2022-03-08 02:19:00,,0826.2,5.00,0.00,22.2,21.9,00.0,31.1,23.9,08.8,-000.7,0011.10,0006.73,0006.28
2022-03-08 02:20:00,,0826.2,5.01,0.00,22.2,21.8,00.0,31.1,23.9,09.0,-000.1,0010.79,0006.71,0006.27
2022-03-08 02:21:00,,0826.3,5.00,0.00,22.1,21.7,00.0,31.1,23.9,09.1,0000.3,0010.37,0006.66,0006.23
2022-03-08 02:22:00,,0826.3,4.99,0.00,22.1,21.6,00.0,31.1,23.8,09.2,-000.2,0010.32,0006.62,0006.20
2022-03-08 02:23:00,,0826.2,5.00,0.00,22.1,21.5,00.0,31.1,23.8,09.3,-000.2,0010.28,0006.58,0006.16
2022-03-08 02:24:00,,0826.2,5.01,0.00,22.1,21.5,00.0,31.1,23.8,09.3,-000.1,0010.17,0006.52,0006.11
2022-03-08 02:25:00,,0826.1,4.99,0.00,22.0,21.4,00.0,31.1,23.8,09.3,0000.1,0009.77,0006.49,0006.09
2022-03-08 02:26:00,,0826.1,4.99,0.00,22.0,21.4,00.0,31.1,23.8,09.2,0000.4,0009.74,0006.47,0006.09
2022-03-08 02:27:00,,0826.1,5.02,0.00,22.0,21.3,00.0,31.1,23.8,09.1,0000.4,0010.10,0006.46,0006.08
2022-03-08 02:28:00,,0826.2,5.00,0.00,22.0,21.3,00.0,31.1,23.7,09.2,0000.6,0009.74,0006.46,0006.07
2022-03-08 02:29:00,,0826.1,5.00,0.00,22.0,21.3,00.0,31.1,23.7,09.2,0001.0,0009.69,0006.44,0006.04
2022-03-08 02:30:00,,0826.1,4.99,0.00,22.0,21.3,00.0,31.1,23.7,09.3,0000.7,0009.63,0006.40,0006.01
2022-03-08 02:31:00,,0826.2,5.00,0.00,22.0,21.3,00.0,31.0,23.7,09.3,0000.3,0009.41,0006.35,0005.97
2022-03-08 02:32:00,,0826.2,5.00,0.00,22.0,21.3,00.0,31.0,23.7,09.3,0000.6,0009.46,0006.37,0005.95
2022-03-08 02:33:00,,0826.2,5.00,0.00,22.0,21.3,00.0,31.0,23.7,09.3,0001.5,0009.60,0006.40,0005.96
2022-03-08 02:34:00,,0826.2,5.00,0.00,22.0,21.2,00.0,31.0,23.7,09.2,0002.3,0009.65,0006.39,0005.96
2022-03-08 02:35:00,,0826.2,5.00,0.00,21.9,21.2,00.0,31.0,23.7,09.2,0002.3,0010.10,0006.42,0005.98
2022-03-08 02:36:00,,0826.2,5.00,0.00,21.9,21.2,00.0,31.0,23.6,09.1,0001.8,0010.94,0006.43,0005.99
2022-03-08 02:37:00,,0826.2,4.99,0.00,21.9,21.1,00.0,31.0,23.6,09.2,0001.5,0010.87,0006.41,0005.99
2022-03-08 02:38:00,,0826.2,5.00,0.00,21.9,21.1,00.0,31.0,23.6,09.2,0001.8,0010.42,0006.40,0005.98
2022-03-08 02:39:00,,0826.2,5.00,0.00,21.9,21.5,00.0,31.0,23.7,09.1,0001.3,0010.42,0006.39,0005.98
2022-03-08 02:40:00,,0826.3,4.99,0.00,22.0,22.2,00.0,31.0,23.9,09.0,0001.0,0010.50,0006.40,0005.98
2022-03-08 02:41:00,,0826.2,5.01,0.00,22.2,22.8,00.0,31.1,24.1,08.9,0001.1,0010.73,0006.43,0005.98
2022-03-08 02:42:00,,0826.2,4.99,0.00,22.2,22.6,00.0,31.1,24.2,08.8,0001.4,0010.95,0006.49,0006.00
2022-03-08 02:43:00,,0826.3,5.01,0.00,22.3,22.4,00.0,31.1,24.1,08.7,0001.3,0010.98,0006.53,0006.03
2022-03-08 02:44:00,,0826.3,4.99,0.00,22.2,22.2,00.0,31.1,24.1,08.7,0000.5,0011.59,0006.59,0006.06
2022-03-08 02:45:00,,0826.3,5.00,0.00,22.2,22.0,00.0,31.1,24.0,08.8,-000.1,0011.62,0006.62,0006.07
2022-03-08 02:46:00,,0826.3,5.01,0.00,22.2,21.9,00.0,31.1,24.0,08.9,0000.1,0011.30,0006.61,0006.07
2022-03-08 02:47:00,,0826.4,5.00,0.00,22.2,21.8,00.0,31.1,23.9,09.0,0000.4,0010.53,0006.64,0006.06
2022-03-08 02:48:00,,0826.3,5.00,0.00,22.1,21.6,00.0,31.1,23.9,09.1,0000.7,0010.37,0006.64,0006.06
2022-03-08 02:49:00,,0826.3,5.00,0.00,22.1,21.6,00.0,31.1,23.8,09.2,0000.4,0010.39,0006.62,0006.03
2022-03-08 02:50:00,,0826.4,5.00,0.00,22.1,21.5,00.0,31.1,23.8,09.2,0000.8,0010.32,0006.61,0006.01
2022-03-08 02:51:00,,0826.3,5.00,0.00,22.0,21.4,00.0,31.1,23.8,09.2,0001.1,0010.16,0006.55,0005.98
2022-03-08 02:52:00,,0826.4,4.99,0.00,22.0,21.3,00.0,31.1,23.7,09.2,0001.1,0009.96,0006.52,0005.97
2022-03-08 02:53:00,,0826.4,4.99,0.00,22.0,21.3,00.0,31.1,23.7,09.2,0000.6,0009.78,0006.48,0005.95
2022-03-08 02:54:00,,0826.4,5.01,0.00,22.0,21.2,00.0,31.1,23.7,09.1,0000.5,0009.68,0006.41,0005.91
2022-03-08 02:55:00,,0826.4,5.00,0.00,22.0,21.2,00.0,31.1,23.7,09.2,0000.9,0008.97,0006.32,0005.87
2022-03-08 02:56:00,,0826.4,5.00,0.00,21.9,21.2,00.0,31.0,23.6,09.2,0001.1,0009.26,0006.29,0005.85
2022-03-08 02:57:00,,0826.4,5.00,0.00,21.9,21.1,00.0,31.0,23.6,09.2,0000.7,0009.96,0006.28,0005.84
2022-03-08 02:58:00,,0826.4,5.00,0.00,21.9,21.1,00.0,31.0,23.6,09.3,0000.3,0009.88,0006.24,0005.83
2022-03-08 02:59:00,,0826.5,5.01,0.00,21.9,21.1,00.0,31.0,23.6,09.4,0000.3,0009.84,0006.23,0005.82
